World > North America > United States > Pennsylvania

Crawford, Pennsylvania Regional Weather

Lat: 41.20N, Lon: 77.27W
Wx Zone: PAZ046Web Search

Ads allow us to feed your daily addiction for the world's greatest weather information. We're determined to offer quality sponsors, in the least annoying way possible.

Feedback


°F Click to change Crawford hourly weather to Imperial units.Click to change Crawford hourly weather to Metric units. °C
Crawford Weather Map
UTC Time: 5/6/2021, 01:56
Your Time:

Crawford, PA Regional Weather

Expires:202105060200;;659334
ASUS41 KCTP 060110
RWRCTP

REGIONAL WEATHER ROUNDUP
NATIONAL WEATHER SERVICE STATE COLLEGE PA
900 PM EDT WED MAY 05 2021

Note: "fair" indicates few or no clouds below 12,000 feet with no 
significant weather and/or obstructions to visibility.

* = STATION THAT DOES NOT REPORT PRECIPITATION /E.G. RAIN...SNOW...ETC/
    THUNDER OR FOG.


PAZ004>006-010>012-017>019-024>028-033>037-041-042-045-046-049>053-060200-
CENTRAL PENNSYLVANIA
  
CITY           SKY/WX    TMP DP  RH WIND       PRES   REMARKS
BRADFORD       CLOUDY    44  35  70 W12       29.97R                  
ST MARYS       CLOUDY    43  39  87 W8G18     30.00                   
DUBOIS         CLOUDY    44  37  76 W10       30.00R                  
CLEARFIELD     CLOUDY    47  36  65 NW14G20   29.99R                  
JOHNSTOWN      CLOUDY    44  36  73 NW16      29.99R                  
SOMERSET       CLOUDY    43  37  81 NW10G20   30.00R                  
ALTOONA        CLOUDY    51  36  56 NW17G23   29.97R                  
STATE COLLEGE  CLOUDY    52  34  50 NW8G18    29.96R                  
REEDSVILLE     MOCLDY    54 N/A N/A W15G25    29.93                   
WELLSBORO      CLOUDY    45  39  81 NW10G21   29.92S                  
WILLIAMSPORT   CLOUDY    53  36  52 NW12      29.92R                  
SELINSGROVE    PTCLDY    55  38  52 NW14      29.92R                  
FT INDIANTOWN  PTCLDY    58  42  56 N6        29.88R                  
CAPITAL CITY   PTCLDY    58  39  49 NW10G23   29.89R                  
HARRISBURG     PTCLDY    60  41  49 NW15G24   29.89R                  
YORK           MOCLDY    57  41  55 W6        29.90R                  
$$


SKY/WX - Weather  TMP - Temperature  DP - Dew Point  RH - Relative Humidity
WIND - Wind Direction/Speed PRES - Barometric Pressure VSB - Visibility
WCI - Wind Chill Index E13G22 Wind - East Wind 13 mph/Gusts of 22 mph